Saipan, MP

6:13 AM ChST on July 28, 2017 (GMT +1000)
Saipan International

Weather History for PGSN - February, 2013

Change the Weather History Date:

Friday, February 1, 2013

  Actual Average Record
Temperature  
Mean Temperature 78 °F -  
Max Temperature 82 °F 82 °F 84 °F (1998)
Min Temperature 73 °F 74 °F 72 °F (2012)
Cooling Degree Days 12    
Growing Degree Days 28 (Base 50)    
Moisture  
Dew Point 64 °F    
Average Humidity 63    
Maximum Humidity 81    
Minimum Humidity 52    
Precipitation  
Precipitation 0.01 in - - ()
Sea Level Pressure  
Sea Level Pressure 30.13 in    
Wind  
Wind Speed 19 mph (NE)    
Max Wind Speed 24 mph    
Max Gust Speed 36 mph    
Visibility 10 miles    
Events Rain    
Averages and records for this station are not official NWS values.
T = Trace of Precipitation, MM = Missing Value Source: NWS Daily Summary

Daily Weather History Graph

Daily Weather History Graph

Search for Another Location

Airport or City:

Trip Planner

Search our weather history database for the weather conditions in past years. The results will help you decide how hot, cold, wet, or windy it might be!

Date:

Astronomy

Feb. 01, 2013 Rise Set
Actual Time 6:46 AM ChST 6:15 PM ChST
Civil Twilight 6:23 AM ChST 6:37 PM ChST
Nautical Twilight 5:57 AM ChST 7:03 PM ChST
Astronomical Twilight 5:32 AM ChST 7:29 PM ChST
Moon 10:37 PM ChST (2/1) 9:53 AM ChST (2/1)
Length of Visible Light 12h 13m
Length of Day
11h 29m
Waning Gibbous, 76% of the Moon is Illuminated
Feb 1
Waning Gibbous
Feb 3
Last Quarter
Feb 10
New
Feb 18
First Quarter
Feb 26
Full

Hourly Weather History & Observations

Time (ChST) Temp. Heat Index Dew Point Humidity Pressure Visibility Wind Dir Wind Speed Gust Speed Precip Events Conditions
12:54 AM 73.9 °F - 64.0 °F 71% 30.14 in 10.0 mi NNE 17.3 mph 23.0 mph N/A   Scattered Clouds
1:54 AM 73.9 °F - 63.0 °F 68% 30.14 in 10.0 mi NNE 16.1 mph - N/A   Scattered Clouds
2:54 AM 75.9 °F - 64.0 °F 67% 30.12 in 10.0 mi NE 19.6 mph 24.2 mph N/A   Mostly Cloudy
3:54 AM 75.0 °F - 64.0 °F 69% 30.12 in 10.0 mi NE 17.3 mph 25.3 mph N/A   Overcast
4:54 AM 75.0 °F - 63.0 °F 66% 30.12 in 10.0 mi NE 18.4 mph 25.3 mph N/A   Overcast
5:54 AM 75.0 °F - 63.0 °F 66% 30.13 in 10.0 mi NE 18.4 mph 25.3 mph N/A   Overcast
6:54 AM 75.0 °F - 63.0 °F 66% 30.15 in 10.0 mi NNE 19.6 mph 24.2 mph N/A   Overcast
7:54 AM 75.9 °F - 63.0 °F 64% 30.17 in 10.0 mi NNE 13.8 mph 24.2 mph 0.00 in   Scattered Clouds
8:54 AM 78.1 °F - 62.1 °F 58% 30.18 in 10.0 mi NNE 19.6 mph 26.5 mph N/A   Scattered Clouds
9:54 AM 79.0 °F - 62.1 °F 56% 30.19 in 10.0 mi NE 24.2 mph 35.7 mph N/A   Scattered Clouds
10:54 AM 80.1 °F 81.2 °F 62.1 °F 54% 30.18 in 10.0 mi NE 20.7 mph 28.8 mph N/A   Scattered Clouds
11:54 AM 82.0 °F 83.4 °F 64.0 °F 54% 30.15 in 10.0 mi NNE 20.7 mph 25.3 mph N/A   Mostly Cloudy
12:54 PM 81.0 °F 81.9 °F 62.1 °F 52% 30.12 in 10.0 mi NE 17.3 mph 28.8 mph N/A   Partly Cloudy
1:54 PM 82.0 °F 83.8 °F 64.9 °F 56% 30.09 in 10.0 mi NNE 20.7 mph 27.6 mph N/A   Scattered Clouds
2:54 PM 79.0 °F - 64.0 °F 60% 30.08 in 10.0 mi NE 18.4 mph 31.1 mph N/A   Scattered Clouds
3:54 PM 80.1 °F 81.7 °F 64.0 °F 58% 30.08 in 10.0 mi NE 19.6 mph 31.1 mph N/A   Overcast
4:54 PM 78.1 °F - 64.0 °F 62% 30.08 in 10.0 mi NE 23.0 mph 31.1 mph N/A   Overcast
5:54 PM 77.0 °F - 64.0 °F 64% 30.09 in 10.0 mi NE 20.7 mph 29.9 mph N/A   Overcast
6:54 PM 77.0 °F - 62.1 °F 60% 30.10 in 10.0 mi NE 24.2 mph 29.9 mph N/A   Overcast
7:54 PM 77.0 °F - 63.0 °F 62% 30.12 in 10.0 mi NE 24.2 mph 29.9 mph N/A   Overcast
8:54 PM 75.9 °F - 64.0 °F 67% 30.13 in 10.0 mi NE 21.9 mph 31.1 mph N/A   Overcast
9:54 PM 75.9 °F - 64.9 °F 69% 30.14 in 10.0 mi NE 19.6 mph 32.2 mph N/A   Overcast
10:54 PM 73.0 °F - 66.9 °F 81% 30.13 in 6.0 mi NNE 11.5 mph 20.7 mph 0.01 in Rain Light Rain
11:54 PM 75.0 °F - 64.9 °F 71% 30.12 in 10.0 mi NE 24.2 mph 31.1 mph 0.00 in   Overcast